EN

Hourly Weather Labedziewo

Today, 25 July, Sunday

Time Temperature Precipitation Wind Pressure Humidity
00:00 +18°C° 0 mm 2 mps 752 mmHg 78%
01:00 +18°C° 0 mm 2 mps 752 mmHg 80%
02:00 +17°C° 0 mm 2 mps 752 mmHg 82%
03:00 +17°C° 0 mm 2 mps 752 mmHg 84%
04:00 +16°C° 0 mm 2 mps 752 mmHg 86%
05:00 +18°C° 0 mm 2 mps 752 mmHg 80%
06:00 +20°C° 0 mm 3 mps 752 mmHg 73%
07:00 +22°C° 0 mm 3 mps 752 mmHg 67%
08:00 +25°C° 0 mm 3 mps 752 mmHg 61%
09:00 +26°C° 0 mm 3 mps 752 mmHg 55%
10:00 +28°C° 0 mm 4 mps 752 mmHg 50%
11:00 +28°C° 0 mm 4 mps 752 mmHg 48%
12:00 +29°C° 0 mm 4 mps 752 mmHg 46%
13:00 +30°C° 0 mm 4 mps 751 mmHg 44%
14:00 +29°C° 0.1 mm 4 mps 751 mmHg 49%
15:00 +28°C° 0.1 mm 4 mps 751 mmHg 55%
16:00 +27°C° 0.1 mm 4 mps 751 mmHg 60%
17:00 +26°C° 0.2 mm 3 mps 751 mmHg 64%
18:00 +24°C° 0.2 mm 3 mps 751 mmHg 67%
19:00 +23°C° 0.2 mm 2 mps 751 mmHg 70%
20:00 +22°C° 0 mm 3 mps 751 mmHg 72%
21:00 +21°C° 0 mm 3 mps 751 mmHg 73%
22:00 +20°C° 0 mm 3 mps 751 mmHg 74%
23:00 +20°C° 0 mm 3 mps 752 mmHg 75%

Tomorrow, 26 July, Monday

Time Temperature Precipitation Wind Pressure Humidity
00:00 +19°C° 0 mm 3 mps 752 mmHg 75%
01:00 +19°C° 0 mm 3 mps 752 mmHg 75%
02:00 +19°C° 0 mm 3 mps 752 mmHg 75%
03:00 +18°C° 0 mm 3 mps 751 mmHg 75%
04:00 +18°C° 0 mm 3 mps 751 mmHg 75%
05:00 +19°C° 0 mm 3 mps 751 mmHg 72%
06:00 +20°C° 0 mm 4 mps 751 mmHg 70%
07:00 +21°C° 0 mm 4 mps 751 mmHg 67%
08:00 +23°C° 0 mm 5 mps 751 mmHg 62%
09:00 +26°C° 0 mm 5 mps 751 mmHg 56%
10:00 +28°C° 0 mm 6 mps 751 mmHg 51%
11:00 +29°C° 0 mm 6 mps 751 mmHg 48%
12:00 +30°C° 0 mm 7 mps 751 mmHg 46%
13:00 +30°C° 0 mm 7 mps 750 mmHg 43%
14:00 +29°C° 0.1 mm 6 mps 750 mmHg 52%
15:00 +27°C° 0.1 mm 5 mps 750 mmHg 61%
16:00 +25°C° 0.1 mm 5 mps 750 mmHg 69%
17:00 +25°C° 0.1 mm 4 mps 750 mmHg 74%
18:00 +23°C° 0.1 mm 4 mps 750 mmHg 79%
19:00 +22°C° 0.1 mm 3 mps 750 mmHg 83%
20:00 +21°C° 0.7 mm 3 mps 750 mmHg 85%
21:00 +20°C° 0.7 mm 3 mps 750 mmHg 87%
22:00 +20°C° 0.7 mm 3 mps 750 mmHg 90%
23:00 +19°C° 0.3 mm 3 mps 749 mmHg 90%

Day after tomorrow, 27 July, Tuesday

Time Temperature Precipitation Wind Pressure Humidity
00:00 +19°C° 0.3 mm 3 mps 749 mmHg 90%
01:00 +19°C° 0.3 mm 3 mps 749 mmHg 90%
02:00 +19°C° 0.5 mm 3 mps 749 mmHg 92%
03:00 +19°C° 0.5 mm 3 mps 748 mmHg 94%
04:00 +18°C° 0.5 mm 3 mps 748 mmHg 95%
05:00 +19°C° 0.3 mm 3 mps 748 mmHg 96%
06:00 +19°C° 0.3 mm 2 mps 748 mmHg 96%
07:00 +19°C° 0.3 mm 2 mps 748 mmHg 96%
08:00 +20°C° 0 mm 2 mps 748 mmHg 93%
09:00 +21°C° 0 mm 2 mps 748 mmHg 91%
10:00 +23°C° 0 mm 2 mps 748 mmHg 88%
11:00 +24°C° 0.2 mm 3 mps 748 mmHg 84%
12:00 +25°C° 0.2 mm 3 mps 748 mmHg 80%
13:00 +26°C° 0.2 mm 3 mps 748 mmHg 75%
14:00 +26°C° 0.4 mm 3 mps 748 mmHg 74%
15:00 +26°C° 0.4 mm 3 mps 748 mmHg 73%
16:00 +27°C° 0.4 mm 3 mps 748 mmHg 71%
17:00 +25°C° 0.6 mm 3 mps 748 mmHg 78%
18:00 +22°C° 0.6 mm 3 mps 748 mmHg 84%
19:00 +21°C° 0.6 mm 3 mps 748 mmHg 91%
20:00 +20°C° 0 mm 3 mps 749 mmHg 91%
21:00 +19°C° 0 mm 2 mps 749 mmHg 91%
22:00 +18°C° 0 mm 2 mps 749 mmHg 91%
23:00 +18°C° 0 mm 2 mps 749 mmHg 91%

28 July, Wednesday

Time Temperature Precipitation Wind Pressure Humidity
00:00 +18°C° 0 mm 2 mps 749 mmHg 91%
01:00 +17°C° 0 mm 2 mps 749 mmHg 91%
02:00 +17°C° 0 mm 2 mps 749 mmHg 91%
03:00 +17°C° 0 mm 2 mps 749 mmHg 90%
04:00 +17°C° 0 mm 2 mps 749 mmHg 90%
05:00 +18°C° 0 mm 2 mps 749 mmHg 87%
06:00 +20°C° 0 mm 2 mps 749 mmHg 83%
07:00 +23°C° 0 mm 2 mps 749 mmHg 79%
08:00 +24°C° 0.4 mm 2 mps 749 mmHg 72%
09:00 +26°C° 0.4 mm 3 mps 749 mmHg 65%
10:00 +27°C° 0.4 mm 3 mps 749 mmHg 58%
11:00 +28°C° 0 mm 3 mps 749 mmHg 54%
12:00 +29°C° 0 mm 4 mps 749 mmHg 50%
13:00 +29°C° 0 mm 4 mps 749 mmHg 46%
14:00 +29°C° 0 mm 3 mps 749 mmHg 51%
15:00 +28°C° 0 mm 2 mps 749 mmHg 56%
16:00 +27°C° 0 mm 2 mps 749 mmHg 61%
17:00 +26°C° 0 mm 2 mps 749 mmHg 65%
18:00 +25°C° 0 mm 1 mps 749 mmHg 68%
19:00 +24°C° 0 mm 1 mps 749 mmHg 72%
20:00 +24°C° 0 mm 2 mps 749 mmHg 73%
21:00 +23°C° 0 mm 2 mps 749 mmHg 73%
22:00 +21°C° 0 mm 2 mps 749 mmHg 74%
23:00 +21°C° 0 mm 2 mps 749 mmHg 76%

29 July, Thursday

Time Temperature Precipitation Wind Pressure Humidity
00:00 +20°C° 0 mm 2 mps 749 mmHg 79%
01:00 +20°C° 0 mm 2 mps 749 mmHg 81%
02:00 +19°C° 0 mm 2 mps 750 mmHg 85%
03:00 +18°C° 0 mm 2 mps 750 mmHg 89%
04:00 +17°C° 0 mm 2 mps 750 mmHg 93%
05:00 +18°C° 0 mm 2 mps 750 mmHg 87%
06:00 +20°C° 0 mm 2 mps 750 mmHg 81%
07:00 +21°C° 0 mm 3 mps 750 mmHg 75%
08:00 +22°C° 0 mm 3 mps 751 mmHg 69%
09:00 +24°C° 0 mm 3 mps 751 mmHg 63%
10:00 +25°C° 0 mm 3 mps 751 mmHg 57%
11:00 +26°C° 0 mm 3 mps 751 mmHg 54%
12:00 +26°C° 0 mm 3 mps 751 mmHg 52%
13:00 +27°C° 0 mm 3 mps 750 mmHg 49%
14:00 +27°C° 0 mm 2 mps 750 mmHg 52%
15:00 +26°C° 0 mm 2 mps 750 mmHg 55%
16:00 +26°C° 0 mm 1 mps 750 mmHg 58%
17:00 +25°C° 0 mm 1 mps 750 mmHg 59%
18:00 +24°C° 0 mm 1 mps 750 mmHg 61%
19:00 +23°C° 0 mm 2 mps 749 mmHg 62%
20:00 +23°C° 0 mm 2 mps 749 mmHg 62%
21:00 +23°C° 0 mm 2 mps 749 mmHg 62%
22:00 +23°C° 0 mm 2 mps 749 mmHg 62%
23:00 +21°C° 0 mm 3 mps 749 mmHg 65%

30 July, Friday

Time Temperature Precipitation Wind Pressure Humidity
00:00 +20°C° 0 mm 3 mps 749 mmHg 67%
01:00 +20°C° 0 mm 3 mps 749 mmHg 69%
02:00 +20°C° 0 mm 3 mps 748 mmHg 69%
03:00 +20°C° 0 mm 3 mps 748 mmHg 69%
04:00 +20°C° 0 mm 3 mps 748 mmHg 69%
05:00 +21°C° 0 mm 3 mps 748 mmHg 68%
06:00 +21°C° 0 mm 3 mps 748 mmHg 67%
07:00 +22°C° 0 mm 3 mps 748 mmHg 67%
08:00 +25°C° 0 mm 4 mps 748 mmHg 60%
09:00 +27°C° 0 mm 5 mps 747 mmHg 54%
10:00 +29°C° 0 mm 6 mps 747 mmHg 47%
11:00 +29°C° 0 mm 6 mps 747 mmHg 46%
12:00 +30°C° 0 mm 6 mps 746 mmHg 45%
13:00 +30°C° 0 mm 6 mps 746 mmHg 44%
14:00 +30°C° 0.1 mm 5 mps 745 mmHg 48%
15:00 +29°C° 0.1 mm 5 mps 745 mmHg 52%
16:00 +28°C° 0.1 mm 5 mps 744 mmHg 56%
17:00 +26°C° 1.1 mm 4 mps 744 mmHg 67%
18:00 +23°C° 1.1 mm 4 mps 744 mmHg 79%
19:00 +21°C° 1.1 mm 3 mps 745 mmHg 91%
20:00 +20°C° 0.3 mm 3 mps 745 mmHg 93%
21:00 +20°C° 0.3 mm 2 mps 745 mmHg 95%
22:00 +19°C° 0.3 mm 2 mps 746 mmHg 97%
23:00 +18°C° 0 mm 2 mps 746 mmHg 97%
Show more